FW5810 Weather Reports


time (UTC)temp
C
wind
direction
speed
KPH
gust
KPH
rain 1hr
cm
rain 24hr
cm
rain mn
cm
humidity
%
barometer
mb
20260510195044 15 39 8.0 12.9 0.00 0.00 0.00 28 1018.8
20260510194539 15 345 3.2 17.7 0.00 0.00 0.00 26 1019.1
20260510194036 15 295 9.7 12.9 0.00 0.00 0.00 33 1018.8
20260510193530 16 328 6.4 17.7 0.00 0.00 0.00 30 1018.9
20260510193026 16 280 8.0 16.1 0.00 0.00 0.00 27 1018.7
20260510192521 15 325 3.2 17.7 0.00 0.00 0.00 30 1019.0
20260510192017 15 335 4.8 8.0 0.00 0.00 0.00 32 1019.1
20260510191514 15 287 8.0 24.1 0.00 0.00 0.00 27 1019.0
20260510191010 16 308 6.4 16.1 0.00 0.00 0.00 28 1019.0
20260510190508 15 298 3.2 11.3 0.00 0.00 0.00 31 1018.9
20260510190005 16 339 16.1 17.7 0.00 0.00 0.00 28 1018.8
20260510185502 15 321 4.8 24.1 0.00 0.00 0.00 33 1018.9
20260510184959 15 304 6.4 16.1 0.00 0.00 0.00 32 1018.8
20260510184456 16 255 6.4 12.9 0.00 0.00 0.00 28 1018.5
20260510183951 16 312 8.0 11.3 0.00 0.00 0.00 28 1018.4
20260510183448 15 20 4.8 12.9 0.00 0.00 0.00 33 1018.3
20260510182948 15 2 17.7 24.1 0.00 0.00 0.00 30 1018.3
20260510182444 15 355 1.6 8.0 0.00 0.00 0.00 28 1018.3
20260510181939 15 12 16.1 19.3 0.00 0.00 0.00 30 1018.3
20260510181438 15 23 14.5 17.7 0.00 0.00 0.00 31 1018.4
20260510180933 15 339 9.7 17.7 0.00 0.00 0.00 33 1018.3
20260510180431 15 321 6.4 11.3 0.00 0.00 0.00 35 1018.2
20260510175928 15 28 3.2 6.4 0.00 0.00 0.00 33 1018.5
20260510175424 15 8 4.8 4.8 0.00 0.00 0.00 36 1018.3
20260510174919 15 298 3.2 11.3 0.00 0.00 0.00 33 1018.5
20260510174418 15 359 9.7 12.9 0.00 0.00 0.00 31 1018.5
20260510173914 15 7 6.4 16.1 0.00 0.00 0.00 30 1018.4
20260510173409 14 49 19.3 25.7 0.00 0.00 0.00 33 1018.3
20260510172906 15 9 20.9 25.7 0.00 0.00 0.00 31 1018.5
20260510172403 15 313 16.1 24.1 0.00 0.00 0.00 31 1018.5
20260510171858 14 314 6.4 16.1 0.00 0.00 0.00 38 1018.6
20260510171356 14 324 19.3 24.1 0.00 0.00 0.00 32 1018.5
20260510170853 14 347 16.1 24.1 0.00 0.00 0.00 34 1018.3
20260510170349 15 12 8.0 19.3 0.00 0.00 0.00 33 1018.5
20260510165844 14 310 3.2 17.7 0.00 0.00 0.00 36 1018.5
20260510165341 15 11 17.7 19.3 0.00 0.00 0.00 34 1018.4
20260510164838 15 334 11.3 11.3 0.00 0.00 0.00 35 1018.3
20260510164335 13 167 3.2 11.3 0.00 0.00 0.00 37 1018.4
20260510163835 13 2 4.8 19.3 0.00 0.00 0.00 37 1018.5
20260510163331 13 325 8.0 12.9 0.00 0.00 0.00 41 1018.4
20260510162826 13 359 8.0 16.1 0.00 0.00 0.00 39 1018.4
20260510162324 13 346 4.8 12.9 0.00 0.00 0.00 41 1018.4
20260510161819 13 21 9.7 17.7 0.00 0.00 0.00 40 1018.3
20260510161315 13 358 19.3 22.5 0.00 0.00 0.00 40 1018.4
20260510160813 12 353 4.8 17.7 0.00 0.00 0.00 41 1018.3
20260510160309 12 332 16.1 25.7 0.00 0.00 0.00 41 1018.4
20260510155809 12 349 8.0 12.9 0.00 0.00 0.00 43 1018.3
20260510155306 12 43 12.9 19.3 0.00 0.00 0.00 45 1018.3
20260510154802 12 77 3.2 16.1 0.00 0.00 0.00 47 1018.2
20260510154258 12 347 6.4 17.7 0.00 0.00 0.00 47 1018.1
20260510153752 12 358 11.3 16.1 0.00 0.00 0.00 48 1018.2
20260510153248 12 89 12.9 17.7 0.00 0.00 0.00 48 1018.1
20260510152745 12 339 8.0 16.1 0.00 0.00 0.00 53 1018.1
20260510152242 12 341 11.3 16.1 0.00 0.00 0.00 52 1018.1
20260510151738 11 16 14.5 17.7 0.00 0.00 0.00 52 1018.0
20260510151237 11 12 11.3 16.1 0.00 0.00 0.00 53 1018.0
20260510150732 11 31 9.7 17.7 0.00 0.00 0.00 55 1018.0
20260510150228 11 1 12.9 17.7 0.00 0.00 0.00 51 1017.7
20260510145725 11 13 8.0 17.7 0.00 0.00 0.00 54 1017.9
20260510145221 11 341 14.5 22.5 0.00 0.00 0.00 51 1017.9
20260510144717 11 38 11.3 24.1 0.00 0.00 0.00 48 1017.7
20260510144214 11 321 9.7 19.3 0.00 0.00 0.00 51 1017.6
20260510143709 11 358 8.0 12.9 0.00 0.00 0.00 54 1017.8
20260510143205 11 347 9.7 17.7 0.00 0.00 0.00 54 1017.6
20260510142702 11 8 12.9 16.1 0.00 0.00 0.00 58 1017.7
20260510142158 10 303 9.7 17.7 0.00 0.00 0.00 58 1017.7
20260510141655 10 346 8.0 11.3 0.00 0.00 0.00 65 1017.7
20260510141154 10 3 12.9 17.7 0.00 0.00 0.00 64 1017.7
20260510140650 10 20 16.1 17.7 0.00 0.00 0.00 65 1017.6
20260510140149 10 25 9.7 16.1 0.00 0.00 0.00 64 1017.3
20260510135644 10 350 9.7 11.3 0.00 0.00 0.00 67 1017.5
20260510135141 10 55 1.6 6.4 0.00 0.00 0.00 70 1017.1
20260510134638 10 155 3.2 8.0 0.00 0.00 0.00 71 1017.3
20260510134135 9 11 1.6 8.0 0.00 0.00 0.00 70 1017.2
20260510133632 9 32 9.7 16.1 0.00 0.00 0.00 71 1017.2
20260510133127 9 337 14.5 16.1 0.00 0.00 0.00 71 1017.2
20260510132624 9 3 4.8 16.1 0.00 0.00 0.00 70 1016.9
20260510132121 9 9 3.2 12.9 0.00 0.00 0.00 74 1017.1
20260510131618 9 43 6.4 8.0 0.00 0.00 0.00 72 1016.7
20260510131116 9 8 3.2 6.4 0.00 0.00 0.00 71 1016.5
20260510130612 8 4 9.7 12.9 0.00 0.00 0.00 70 1016.5
20260510130110 8 72 9.7 16.1 0.00 0.00 0.00 69 1016.4
20260510125606 8 354 6.4 8.0 0.00 0.00 0.00 72 1016.4
20260510125102 8 9 4.8 6.4 0.00 0.00 0.00 73 1016.4
20260510124558 8 47 11.3 12.9 0.00 0.00 0.00 73 1016.3
20260510124056 8 25 4.8 11.3 0.00 0.00 0.00 76 1016.4
20260510123551 8 28 8.0 8.0 0.00 0.00 0.00 74 1016.2
20260510123047 8 3 12.9 17.7 0.00 0.00 0.00 76 1016.0
20260510122543 8 27 4.8 6.4 0.00 0.00 0.00 78 1016.0
20260510122039 8 35 8.0 11.3 0.00 0.00 0.00 75 1015.9
20260510121537 8 353 6.4 6.4 0.00 0.00 0.00 78 1016.0
20260510121034 8 21 6.4 8.0 0.00 0.00 0.00 79 1015.6
20260510120531 8 30 3.2 11.3 0.00 0.00 0.00 80 1015.5
20260510120027 8 357 4.8 11.3 0.00 0.00 0.00 79 1015.4
20260510115524 8 21 4.8 11.3 0.00 0.00 0.00 80 1015.5
20260510115020 8 353 4.8 8.0 0.00 0.00 0.00 81 1015.2
20260510114516 8 336 6.4 6.4 0.00 0.00 0.00 81 1014.9
20260510114013 8 344 6.4 8.0 0.00 0.00 0.00 81 1014.8
20260510113508 8 31 1.6 6.4 0.00 0.00 0.00 81 1014.7
20260510113006 8 10 1.6 8.0 0.00 0.00 0.00 84 1014.6
20260510112503 8 22 6.4 12.9 0.00 0.00 0.00 84 1014.6
20260510111959 8 23 6.4 8.0 0.00 0.00 0.00 84 1014.4
20260510111455 8 357 8.0 12.9 0.00 0.00 0.00 85 1014.3
20260510110951 8 18 1.6 8.0 0.00 0.00 0.00 86 1014.6
20260510110448 8 28 1.6 4.8 0.00 0.00 0.00 86 1014.3
20260510105944 8 16 3.2 4.8 0.00 0.00 0.00 86 1014.2
20260510105439 8 352 4.8 6.4 0.00 0.00 0.00 86 1013.9
20260510104934 8 355 8.0 11.3 0.00 0.00 0.00 86 1013.9
20260510104431 8 13 4.8 4.8 0.00 0.00 0.00 87 1013.8
20260510103928 8 2 3.2 6.4 0.00 0.00 0.00 87 1013.7
20260510103426 8 25 3.2 4.8 0.00 0.00 0.00 87 1013.3
20260510102920 8 9 3.2 4.8 0.00 0.00 0.00 87 1013.5
20260510102416 8 343 3.2 4.8 0.00 0.00 0.00 86 1013.3
20260510101914 8 16 6.4 12.9 0.00 0.00 0.00 86 1013.2
20260510101412 8 357 3.2 4.8 0.00 0.00 0.00 87 1013.5
20260510100909 9 5 1.6 1.6 0.00 0.00 0.00 88 1013.3
20260510100406 9 23 1.6 6.4 0.00 0.00 0.00 87 1013.1
20260510095902 9 346 8.0 6.4 0.00 0.00 0.00 87 1013.1
20260510095357 9 353 1.6 1.6 0.00 0.00 0.00 88 1012.9
20260510094856 9 352 3.2 4.8 0.00 0.00 0.00 89 1012.7
20260510094352 9 345 1.6 1.6 0.00 0.00 0.00 89 1012.7
20260510093848 9 344 1.6 6.4 0.00 0.00 0.00 89 1012.7
20260510093344 8 7 1.6 4.8 0.00 0.00 0.00 90 1012.6
20260510092840 9 7 0.0 0.0 0.00 0.00 0.00 89 1012.2
20260510092337 9 7 1.6 1.6 0.00 0.00 0.00 87 1012.3
20260510091832 9 7 0.0 1.6 0.00 0.00 0.00 85 1012.3
20260510091330 10 7 1.6 1.6 0.00 0.00 0.00 85 1012.2
20260510090826 10 16 3.2 4.8 0.00 0.00 0.00 85 1012.1
20260510090323 10 8 4.8 6.4 0.00 0.00 0.00 84 1012.0
20260510085819 10 14 6.4 8.0 0.00 0.00 0.00 84 1011.9
20260510085318 10 20 4.8 6.4 0.00 0.00 0.00 87 1012.1
20260510084814 10 354 6.4 8.0 0.00 0.00 0.00 88 1011.9
20260510084312 10 10 4.8 11.3 0.00 0.00 0.00 89 1011.7
20260510083808 11 36 4.8 11.3 0.00 0.00 0.00 90 1011.7
20260510083306 11 351 3.2 6.4 0.00 0.00 0.00 92 1012.0
20260510082801 11 0 3.2 4.8 0.00 0.00 0.00 93 1011.9
20260510082258 11 21 4.8 6.4 0.00 0.00 0.00 91 1011.8
20260510081756 11 13 6.4 11.3 0.00 0.00 0.00 90 1011.6
20260510081253 11 13 9.7 17.7 0.00 0.00 0.00 88 1011.5
20260510080749 11 6 6.4 11.3 0.00 0.00 0.00 91 1011.5
20260510080244 11 21 4.8 12.9 0.00 0.00 0.00 92 1011.2
20260510075741 11 343 6.4 8.0 0.00 0.00 0.00 93 1011.3
20260510075239 11 5 4.8 8.0 0.00 0.00 0.00 94 1011.2
20260510074736 11 10 3.2 4.8 0.00 0.00 0.00 95 1011.0
20260510074232 12 4 9.7 11.3 0.00 0.00 0.00 96 1011.0
20260510073728 11 7 3.2 8.0 0.00 0.00 0.00 96 1011.0
20260510073224 11 6 1.6 1.6 0.00 0.00 0.00 97 1011.1
20260510072720 11 6 1.6 1.6 0.00 0.00 0.00 97 1011.1
20260510072217 11 6 0.0 1.6 0.00 0.00 0.00 97 1010.9
20260510071714 11 6 0.0 1.6 0.00 0.00 0.00 96 1010.8
20260510071210 11 6 0.0 0.0 0.00 0.00 0.00 96 1010.6
20260510070708 11 6 0.0 0.0 0.00 0.00 0.00 96 1010.6
20260510070205 11 6 1.6 1.6 0.00 0.00 0.00 96 1010.6
20260510065700 11 6 0.0 0.0 0.00 0.00 0.00 95 1010.6
20260510065157 11 6 0.0 1.6 0.00 0.00 0.00 95 1010.6
20260510064653 12 6 1.6 1.6 0.00 0.00 0.00 95 1010.2
20260510064150 12 6 0.0 1.6 0.00 0.00 0.00 95 1010.3
20260510063648 12 5 3.2 4.8 0.00 0.00 0.00 94 1010.1
20260510063144 12 8 3.2 1.6 0.00 0.00 0.00 94 1010.2
20260510062640 12 4 1.6 4.8 0.00 0.00 0.00 95 1010.6
20260510062136 12 318 0.0 4.8 0.00 0.00 0.00 94 1010.6
20260510061631 12 24 3.2 12.9 0.00 0.00 0.00 95 1010.5
20260510061129 12 354 3.2 4.8 0.00 0.00 0.00 95 1010.2
20260510060625 12 331 9.7 19.3 0.00 0.00 0.00 95 1010.6
20260510060122 12 1 6.4 6.4 0.00 0.00 0.00 95 1010.0
20260510055618 12 236 6.4 6.4 0.00 0.00 0.00 95 1009.7
20260510055116 12 244 1.6 1.6 0.00 0.00 0.00 95 1009.7
20260510054612 12 205 4.8 4.8 0.00 0.00 0.00 95 1009.7
20260510054107 12 224 8.0 11.3 0.00 0.00 0.00 95 1009.6
20260510053606 12 233 8.0 11.3 0.00 0.00 0.00 95 1009.7
20260510053104 12 227 4.8 6.4 0.00 0.00 0.00 96 1009.6
20260510052559 12 223 3.2 6.4 0.00 0.00 0.00 96 1009.5
20260510052056 12 232 1.6 4.8 0.00 0.00 0.00 96 1009.3
20260510051551 11 202 4.8 4.8 0.00 0.00 0.00 95 1009.4
20260510051049 12 203 1.6 1.6 0.00 0.00 0.00 95 1009.5
20260510050546 12 202 3.2 4.8 0.00 0.00 0.00 95 1009.3
20260510050043 12 210 1.6 4.8 0.00 0.00 0.00 95 1009.4
20260510045540 12 156 3.2 4.8 0.00 0.00 0.00 95 1009.4
20260510045036 12 132 3.2 6.4 0.00 0.00 0.00 96 1009.3
20260510044533 12 184 1.6 6.4 0.00 0.00 0.00 96 1009.4
20260510044031 12 192 1.6 6.4 0.00 0.00 0.00 96 1009.4
20260510043526 12 206 3.2 1.6 0.00 0.00 0.00 96 1009.5
20260510043021 12 184 3.2 1.6 0.00 0.00 0.00 95 1009.4
20260510042515 12 125 1.6 1.6 0.00 0.00 0.00 95 1009.7
20260510042010 12 120 1.6 4.8 0.00 0.00 0.00 95 1009.6
20260510041509 12 119 4.8 4.8 0.00 0.00 0.00 95 1009.6
20260510041006 12 135 4.8 4.8 0.00 0.00 0.00 95 1009.8
20260510040502 12 77 3.2 4.8 0.00 0.00 0.00 95 1010.1
20260510035957 12 8 1.6 1.6 0.00 2.62 2.62 95 1009.6
20260510035455 12 5 1.6 4.8 0.00 2.62 2.62 95 1009.7
20260510034954 12 68 4.8 4.8 0.18 2.62 2.62 95 1009.9
20260510034453 12 355 8.0 8.0 0.18 2.62 2.62 94 1009.8
20260510033949 12 261 0.0 6.4 0.00 2.59 2.59 94 1009.4
20260510033445 12 186 4.8 6.4 0.00 2.59 2.59 93 1009.3
20260510032942 12 188 0.0 4.8 0.00 2.59 2.59 94 1009.5
20260510032439 12 191 3.2 6.4 0.00 2.59 2.59 94 1009.7
20260510031939 12 220 3.2 6.4 0.00 2.59 2.59 94 1009.8
20260510031435 12 171 3.2 4.8 0.00 2.59 2.59 94 1009.5
20260510030931 12 226 1.6 1.6 0.00 2.59 2.59 94 1009.6
20260510030426 12 227 0.0 1.6 0.00 2.59 2.59 94 1009.5
20260510025924 12 256 3.2 4.8 0.43 2.59 2.59 94 1009.5
20260510025421 12 20 6.4 11.3 0.43 2.59 2.59 95 1009.5
20260510024919 12 7 0.0 4.8 0.00 2.51 2.51 95 1009.9
20260510024415 12 247 0.0 1.6 0.00 2.51 2.51 95 1009.2
20260510023911 12 245 0.0 0.0 0.00 2.51 2.51 95 1008.8
20260510023407 12 245 0.0 4.8 0.00 2.51 2.51 95 1008.9
20260510022905 12 202 1.6 1.6 0.00 2.51 2.51 95 1008.9
20260510022404 12 158 1.6 8.0 0.48 2.51 2.51 95 1008.8
20260510021903 12 153 4.8 4.8 0.48 2.51 2.51 95 1008.7
20260510021401 12 238 1.6 4.8 0.13 2.46 2.46 95 1009.0
20260510020857 12 217 1.6 1.6 0.00 2.44 2.44 95 1008.7
20260510020352 12 227 0.0 1.6 0.00 2.44 2.44 94 1008.8
20260510015848 12 227 1.6 1.6 0.00 2.44 2.44 94 1008.6
20260510015344 12 227 0.0 0.0 0.00 2.44 2.44 94 1008.6
20260510014839 12 227 0.0 1.6 0.00 2.44 2.44 93 1008.6
20260510014337 12 231 1.6 1.6 0.00 2.44 2.44 93 1008.5
20260510013833 12 125 1.6 4.8 0.00 2.44 2.44 93 1008.4
20260510013329 12 237 0.0 1.6 0.00 2.44 2.44 93 1008.6
20260510012824 12 231 0.0 4.8 0.00 2.44 2.44 93 1008.6
20260510012323 12 228 3.2 6.4 0.00 2.44 2.44 93 1008.6
20260510011819 12 134 3.2 6.4 0.00 2.44 2.44 93 1008.2
20260510011314 12 246 1.6 4.8 0.00 2.44 2.44 93 1008.3
20260510010811 12 200 1.6 8.0 0.00 2.44 2.44 93 1008.2
20260510010308 12 286 0.0 1.6 0.00 2.44 2.44 93 1008.2
20260510005805 12 218 0.0 1.6 0.00 2.44 2.44 92 1008.3
20260510005301 12 215 1.6 4.8 0.00 2.44 2.44 92 1008.2
20260510004759 12 265 1.6 6.4 0.00 2.44 2.44 92 1008.1
20260510004256 12 222 3.2 6.4 0.00 2.44 2.44 91 1008.3
20260510003754 12 263 6.4 11.3 0.18 2.44 2.44 91 1008.3
20260510003250 12 187 3.2 11.3 0.18 2.44 2.44 91 1008.1
20260510002749 12 222 4.8 4.8 0.30 2.41 2.41 92 1007.9
20260510002247 12 308 0.0 6.4 0.43 2.41 2.41 92 1008.5
20260510001743 12 269 4.8 6.4 0.43 2.36 2.36 92 1008.6
20260510001242 12 288 4.8 8.0 0.61 2.34 2.34 93 1008.5
20260510000737 12 303 6.4 11.3 0.79 2.29 2.29 92 1008.6
20260510000235 12 265 1.6 16.1 1.98 2.24 2.24 92 1008.7
20260509235731 12 275 3.2 30.6 2.59 2.13 2.13 91 1008.7
20260509235228 12 322 22.5 37.0 2.29 1.88 1.88 88 1007.9
20260509234724 13 2 14.5 30.6 1.55 1.68 1.68 85 1007.4
20260509234221 15 290 6.4 33.8 0.30 1.47 1.47 77 1007.8
20260509233719 18 358 12.9 17.7 0.00 1.42 1.42 57 1007.5
20260509233216 19 266 3.2 11.3 0.00 1.42 1.42 54 1006.4
20260509232713 19 255 9.7 12.9 0.00 1.42 1.42 52 1006.2
20260509232210 19 252 6.4 11.3 0.00 1.42 1.42 52 1006.0
20260509231706 19 221 11.3 25.7 0.00 1.42 1.42 51 1005.8
20260509231204 19 214 16.1 19.3 0.00 1.42 1.42 50 1005.8
20260509230701 19 164 9.7 17.7 0.00 1.42 1.42 50 1005.9
20260509230157 19 226 6.4 16.1 0.00 1.42 1.42 50 1006.0
20260509225653 19 222 6.4 12.9 0.00 1.42 1.42 51 1005.9
20260509225149 20 227 25.7 30.6 0.00 1.42 1.42 50 1005.8
20260509224644 20 156 4.8 6.4 0.00 1.42 1.42 52 1005.4
20260509224142 20 191 12.9 33.8 0.00 1.42 1.42 50 1005.6
20260509223638 20 217 4.8 12.9 0.00 1.42 1.42 49 1005.7
20260509223136 20 227 11.3 17.7 0.00 1.42 1.42 49 1006.0
20260509222633 20 186 19.3 24.1 0.00 1.42 1.42 47 1005.6
20260509222128 20 203 8.0 16.1 0.00 1.42 1.42 47 1005.8
20260509221624 20 231 14.5 25.7 0.00 1.42 1.42 46 1005.8
20260509221120 20 257 9.7 19.3 0.00 1.42 1.42 49 1005.7
20260509220616 20 201 8.0 25.7 0.00 1.42 1.42 48 1005.7
20260509220113 20 268 19.3 33.8 0.00 1.42 1.42 48 1006.0
20260509215608 20 217 4.8 16.1 0.00 1.42 1.42 50 1005.6
20260509215106 20 201 14.5 16.1 0.00 1.42 1.42 49 1005.7
20260509214602 20 207 11.3 25.7 0.00 1.42 1.42 48 1005.6
20260509214059 20 217 12.9 19.3 0.00 1.42 1.42 48 1005.7
20260509213555 20 159 14.5 25.7 0.00 1.42 1.42 47 1005.8
20260509213052 20 263 11.3 30.6 0.00 1.42 1.42 48 1005.9
20260509212549 20 249 12.9 22.5 0.00 1.42 1.42 46 1005.8
20260509212046 20 208 6.4 19.3 0.00 1.42 1.42 50 1006.1
20260509211542 20 275 16.1 25.7 0.00 1.42 1.42 48 1006.1
20260509211039 20 201 9.7 19.3 0.00 1.42 1.42 49 1006.2
20260509210536 20 128 6.4 22.5 0.00 1.42 1.42 49 1006.0
20260509210032 20 158 12.9 24.1 0.00 1.42 1.42 48 1006.2
20260509205526 21 206 17.7 22.5 0.00 1.42 1.42 46 1006.5
20260509205022 20 135 6.4 16.1 0.00 1.42 1.42 46 1006.3
20260509204518 20 199 9.7 19.3 0.00 1.42 1.42 52 1006.3
20260509204015 20 203 12.9 22.5 0.00 1.42 1.42 50 1006.4
20260509203510 19 241 16.1 33.8 0.00 1.42 1.42 51 1006.4
20260509203009 20 175 11.3 16.1 0.00 1.42 1.42 50 1006.5
20260509202503 20 266 12.9 25.7 0.00 1.42 1.42 50 1006.4
20260509201959 21 202 14.5 30.6 0.00 1.42 1.42 50 1006.6
20260509201454 20 187 6.4 16.1 0.00 1.42 1.42 54 1006.6
20260509200951 20 234 14.5 19.3 0.00 1.42 1.42 50 1006.7
20260509200446 20 250 9.7 16.1 0.00 1.42 1.42 52 1006.7
20260509195943 20 102 11.3 16.1 0.00 1.42 1.42 53 1006.8
20260509195433 20 201 8.0 8.0 0.00 1.42 1.42 51 1006.9